User: anonymous
Location: Unspecified
(0.0000°N, 0.0000°E)
Time: 16:45:23
(UTC+02:00)
Language:

ATLAS 3B CENTAUR R/B - Orbit

View from above orbital plane
View from above orbital plane
View from above satellite
View from above satellite

Ground track
Ground track

The orbit data is extracted from the following two-line orbital elements,

1 28118U 03057B   14205.05905044  .00037388  00000-0  84972-3 0  6601
2 28118 028.1697 048.8839 3868616 228.2098 320.5255 07.76279451198462
Epoch (UTC): 24 July 2014 01:25:01
Eccentricity: 0.3868616
inclination: 28.1697°
perigee height: 228 km
apogee height: 8564 km
right ascension of ascending node: 48.8839°
argument of perigee: 228.2098°
revolutions per day: 7.76279451
mean anomaly at epoch: 320.5255°
orbit number at epoch: 19846

The dashed part of the orbit path shows where the satellite is in the earth's shadow,  

DLR